Wind_Speed
28 32 31 29 30 32 34 32 23 19 26 30 30 28 25 24 25 25 28 29 27 25 26 27 26 25 26 26 26 25 24 23 22 22 23 22 21 21 20 19 19 19 18
27 34 35 36 35 31 32 32 30 31 28 30 28 27 27 26 25 27 28 29 28 29 29 29 27 26 27 27 28 26 24 23 21 20 21 21 21 20 20 19 20 22 22
23 39 38 39 35 30 33 37 36 32 27 28 27 25 24 26 27 29 31 31 31 30 30 29 28 27 28 28 27 25 25 24 22 19 20 22 22 21 20 20 22 21 22
25 37 36 36 35 33 29 30 32 29 30 26 24 24 25 27 30 33 34 34 31 32 31 30 27 25 25 24 24 23 23 23 22 19 20 21 22 20 20 20 20 21 21
31 36 34 33 35 35 33 24 28 31 29 28 27 27 29 30 33 35 35 34 34 33 31 28 25 22 23 22 21 20 21 21 20 19 20 20 21 21 19 20 19 18 18
24 26 30 35 36 36 39 29 23 32 33 31 27 28 30 34 37 37 36 35 35 33 31 28 24 19 19 17 18 18 18 18 19 20 19 20 21 20 20 20 19 18 16
22 24 27 36 37 39 31 42 34 33 36 33 29 30 32 35 38 39 37 35 33 32 29 27 21 18 16 16 17 15 15 14 16 19 18 19 19 19 18 19 18 17 16
23 25 29 34 45 40 30 44 47 33 37 33 31 33 34 36 38 38 38 35 34 32 28 25 20 17 19 19 16 14 12 11 14 16 16 16 17 17 17 17 17 17 16
19 26 33 35 40 38 36 53 49 43 38 32 34 35 36 38 39 38 37 36 34 32 26 23 19 17 17 17 15 11 10 12 12 14 14 14 14 15 15 17 18 17 17
11 18 25 34 36 36 41 48 47 43 38 39 38 37 38 38 39 37 36 34 34 31 26 21 18 15 15 15 14 9 8 10 11 12 12 12 12 14 14 15 16 16 15
18 19 21 25 36 37 42 45 49 40 39 38 38 38 38 38 38 36 35 33 32 30 25 20 18 15 12 12 8 7 7 7 8 9 9 10 10 11 13 13 15 15 15
14 15 22 21 41 37 50 45 46 39 36 39 39 40 39 38 38 36 33 32 30 28 26 20 17 15 11 9 8 6 5 5 6 7 8 8 8 9 10 11 13 13 13
16 12 8 7 13 56 55 46 42 37 34 39 45 45 40 39 38 37 35 31 28 26 24 20 17 13 11 9 8 6 4 4 4 5 6 6 6 7 8 9 11 11 11
18 8 10 5 10 38 49 53 58 46 44 44 44 42 42 41 39 36 32 28 28 24 21 19 16 15 12 9 6 4 3 2 2 3 5 5 3 4 6 7 9 9 9
18 11 7 13 18 22 47 56 56 48 45 43 40 40 39 38 37 34 28 29 25 22 20 18 15 14 12 8 5 4 3 2 1 2 3 4 3 4 4 5 9 10 9
10 16 11 19 22 29 26 41 44 43 42 40 38 37 38 36 35 33 30 28 23 22 19 16 15 12 10 6 6 6 4 2 1 1 1 3 2 3 2 5 7 8 11
11 18 18 18 22 31 40 45 41 41 41 40 41 40 34 33 33 30 30 28 23 23 20 17 14 12 11 10 9 6 4 4 1 1 1 2 2 1 2 5 5 6 6
13 15 20 21 22 31 35 37 40 40 40 39 38 35 33 30 29 28 27 24 23 23 20 17 13 12 12 11 8 7 6 2 1 1 0 0 1 2 4 5 3 5 5
17 17 24 27 32 35 38 39 38 40 38 35 32 31 27 26 25 24 24 24 23 22 20 17 15 14 15 12 10 8 6 3 2 2 3 3 3 4 5 5 5 5 7
22 22 32 37 37 37 38 38 40 37 36 35 31 28 29 25 23 23 23 23 21 21 21 19 16 16 13 11 12 10 9 8 8 6 7 8 8 8 8 7 7 8 9
17 19 20 32 34 38 38 43 41 37 39 40 33 28 26 29 26 21 22 22 22 23 24 19 19 18 17 17 15 15 14 14 13 13 13 13 13 12 12 11 10 10 11
15 17 25 29 33 38 41 42 39 37 41 37 35 31 30 33 29 22 21 23 25 25 22 23 23 23 20 20 21 17 12 18 19 19 19 19 16 16 16 14 12 12 13
18 20 22 27 29 28 35 39 37 40 37 32 38 37 38 32 32 28 24 27 28 25 27 26 27 26 25 25 24 19 10 12 13 21 22 22 21 20 20 18 16 16 16
23 19 17 18 24 28 36 39 39 42 43 40 39 38 37 35 35 30 26 27 27 28 27 27 28 29 29 29 28 30 27 17 11 9 16 19 22 26 24 21 20 20 20
23 19 20 22 23 25 30 32 32 39 39 38 40 39 36 35 34 30 29 28 27 27 28 30 31 32 31 32 32 32 33 32 28 23 17 18 19 20 19 20 21 21 23
22 23 24 25 26 28 30 31 34 37 37 37 39 41 41 38 35 35 34 33 32 32 33 32 35 34 32 34 33 33 34 32 30 27 23 22 20 21 20 18 19 21 23
Wind_Direction
171 174 179 177 173 164 163 176 183 166 154 154 156 156 158 155 149 145 138 136 133 132 132 129 124 120 113 108 99 93 88 86 86 87 89 87 86 85 83 82 82 79 80
176 177 176 171 173 178 179 178 186 182 164 159 160 160 159 155 147 139 139 139 138 135 130 127 125 119 112 105 98 91 87 84 81 82 85 85 81 80 80 79 77 78 73
185 179 179 177 183 177 178 177 176 167 183 164 162 158 156 151 145 143 142 139 137 134 131 129 124 116 111 106 97 90 85 81 78 77 79 79 77 75 76 78 80 78 80
180 185 187 186 180 175 172 171 169 172 169 168 164 163 161 154 148 147 143 140 139 136 133 128 121 117 115 110 100 92 83 75 73 74 74 75 75 71 72 73 74 77 77
184 184 187 186 184 178 174 171 178 176 172 172 170 167 162 155 149 145 143 142 141 138 134 129 124 122 113 104 103 93 81 72 71 71 72 73 74 73 71 71 74 77 77
190 184 192 188 182 185 178 183 189 180 178 176 174 169 164 157 151 147 145 143 145 140 135 130 126 122 111 112 108 96 87 78 69 64 68 71 70 69 65 67 67 68 68
196 200 202 204 194 201 203 199 200 191 183 178 176 170 164 156 152 150 148 147 146 140 136 132 133 124 118 122 115 99 87 74 61 60 66 68 68 67 66 65 65 66 64
219 212 210 207 199 198 203 189 182 198 184 177 179 171 164 156 155 153 150 147 145 141 139 135 135 130 121 120 120 107 90 71 63 57 60 63 64 63 62 63 63 64 66
218 215 212 196 196 210 210 195 192 197 183 179 178 170 163 160 157 155 150 146 144 142 142 141 141 129 121 122 120 109 95 77 61 58 59 64 68 65 62 63 65 61 59
208 219 215 220 218 202 194 189 186 193 188 179 174 169 163 160 157 155 151 147 145 146 148 148 143 137 128 121 126 115 88 67 56 56 54 56 64 69 66 58 52 54 54
190 194 202 214 215 212 202 206 191 191 185 175 172 169 161 160 157 155 153 149 147 146 146 148 149 155 145 133 131 127 99 71 60 56 55 50 54 70 67 59 54 45 42
214 212 234 240 228 220 204 173 179 182 172 174 172 166 164 161 159 154 152 153 152 152 153 151 149 148 148 159 161 127 92 78 70 57 57 54 63 70 68 63 49 41 38
191 195 231 313 339 212 193 182 176 189 177 175 173 170 164 163 159 158 155 155 157 161 160 163 157 155 158 165 152 131 107 94 76 57 58 57 51 87 67 60 45 43 39
192 203 260 251 46 141 188 179 187 182 187 177 174 172 169 165 162 158 155 163 167 168 168 168 164 159 161 163 144 136 136 116 80 65 68 68 50 75 71 46 34 35 34
209 193 214 150 127 130 138 157 167 171 179 174 172 174 171 163 160 162 168 170 171 173 176 169 171 169 168 169 157 149 174 174 124 72 74 88 51 40 48 37 9 5 8
200 177 179 163 154 149 152 154 164 172 176 170 172 170 165 165 165 169 175 174 175 180 179 183 177 166 173 189 180 179 189 180 139 144 88 83 67 50 41 12 351 350 351
205 186 179 170 165 166 169 168 164 174 173 170 167 168 170 170 176 173 181 177 180 181 184 184 180 179 181 193 198 194 180 144 77 295 81 81 46 24 349 339 337 340 345
209 188 193 189 180 175 170 167 170 173 170 170 168 170 171 179 182 178 181 182 182 186 195 193 199 195 193 192 199 187 175 173 136 116 155 351 317 309 307 325 328 342 342
197 206 201 199 182 178 172 168 170 167 166 163 164 172 178 180 182 180 187 184 190 196 200 206 207 203 194 200 203 201 200 214 212 268 248 267 276 285 301 303 295 329 345
200 206 195 183 180 174 175 168 169 172 174 180 176 172 175 178 185 188 190 192 198 202 210 213 209 205 207 217 212 215 217 235 248 257 260 267 274 280 291 289 288 314 326
197 201 180 171 177 180 179 175 180 178 178 178 184 184 183 187 206 199 197 203 209 213 219 218 215 217 218 215 214 221 231 240 246 252 254 254 262 275 280 285 289 296 306
194 193 194 189 185 189 185 183 186 184 188 193 192 187 192 211 209 206 209 215 217 220 223 227 227 223 226 227 220 224 232 241 247 249 253 255 255 263 269 277 278 287 294
200 193 190 198 193 199 191 190 198 197 205 193 195 198 202 211 215 216 220 226 228 228 232 232 231 231 237 233 230 229 219 230 236 242 246 248 251 256 262 264 266 272 278
199 198 190 193 198 201 200 200 207 208 202 204 199 203 208 215 212 213 226 232 233 235 235 234 235 237 242 241 235 232 232 239 216 227 242 245 247 252 254 260 264 267 270
203 199 194 191 193 196 198 207 213 210 205 206 203 211 216 214 215 226 233 236 239 239 238 237 234 237 245 244 241 237 235 239 244 249 244 251 248 247 249 261 259 263 267
204 201 196 191 191 196 204 209 207 205 210 212 215 214 214 219 229 234 237 242 241 243 241 241 238 242 246 246 245 244 246 242 242 243 246 254 255 250 256 253 259 266 268
Height
1480 1486 1490 1491 1494 1495 1491 1496 1509 1509 1514 1518 1516 1518 1520 1521 1520 1525 1526 1528 1533 1535 1535 1537 1540 1543 1542 1543 1546 1547 1546 1546 1547 1548 1547 1547 1548 1547 1548 1549 1548 1549 1549
1481 1483 1487 1488 1492 1496 1490 1496 1505 1508 1514 1516 1519 1518 1521 1522 1521 1524 1527 1530 1533 1536 1536 1539 1542 1544 1544 1547 1548 1548 1548 1548 1549 1551 1550 1550 1551 1550 1550 1550 1551 1552 1553
1478 1481 1486 1488 1493 1495 1495 1492 1503 1510 1511 1517 1517 1518 1520 1521 1521 1526 1528 1531 1535 1537 1538 1540 1543 1544 1547 1549 1550 1551 1551 1551 1551 1554 1552 1552 1552 1552 1552 1552 1553 1553 1555
1480 1483 1485 1488 1489 1494 1500 1502 1502 1507 1511 1516 1519 1520 1520 1521 1523 1527 1527 1530 1535 1537 1540 1541 1543 1547 1548 1551 1552 1554 1554 1554 1554 1556 1554 1554 1553 1555 1556 1554 1554 1555 1556
1478 1481 1485 1489 1492 1493 1495 1507 1507 1508 1513 1516 1520 1520 1519 1521 1525 1529 1530 1534 1535 1537 1539 1542 1544 1548 1549 1552 1554 1556 1556 1557 1558 1557 1556 1556 1556 1558 1559 1557 1557 1557 1557
1478 1479 1487 1488 1490 1492 1495 1505 1518 1511 1514 1515 1519 1520 1520 1523 1524 1528 1531 1534 1539 1538 1540 1543 1545 1549 1550 1554 1555 1557 1558 1560 1561 1560 1559 1559 1559 1560 1561 1560 1559 1558 1559
1476 1478 1481 1486 1488 1492 1498 1499 1514 1517 1513 1513 1517 1521 1523 1525 1527 1528 1531 1535 1540 1540 1542 1544 1547 1549 1552 1555 1557 1558 1560 1562 1562 1561 1561 1560 1561 1561 1562 1562 1561 1560 1561
1475 1477 1478 1480 1484 1488 1492 1497 1501 1516 1512 1513 1517 1519 1522 1526 1531 1532 1530 1536 1540 1541 1544 1545 1548 1552 1553 1555 1559 1561 1563 1564 1564 1563 1563 1563 1563 1563 1564 1564 1564 1563 1564
1470 1473 1475 1477 1481 1486 1491 1492 1491 1508 1510 1511 1519 1518 1522 1527 1530 1536 1535 1536 1539 1542 1546 1548 1550 1553 1555 1557 1560 1563 1565 1565 1565 1564 1565 1565 1564 1564 1565 1565 1565 1565 1566
1466 1469 1471 1474 1477 1480 1486 1491 1494 1494 1509 1511 1516 1518 1523 1529 1530 1536 1538 1538 1540 1544 1546 1549 1553 1555 1557 1559 1562 1563 1565 1565 1565 1565 1566 1566 1566 1566 1566 1566 1565 1566 1567
1464 1465 1469 1472 1474 1478 1479 1481 1488 1498 1511 1509 1514 1519 1524 1529 1532 1536 1538 1542 1544 1545 1548 1551 1554 1555 1558 1562 1563 1565 1566 1566 1566 1567 1566 1567 1567 1567 1567 1568 1567 1567 1567
1463 1466 1467 1469 1463 1466 1474 1477 1489 1499 1500 1511 1514 1520 1523 1529 1532 1534 1538 1543 1546 1546 1548 1551 1556 1557 1560 1564 1565 1565 1566 1568 1567 1567 1567 1568 1567 1568 1567 1569 1569 1569 1569
1461 1463 1462 1457 1431 1429 1460 1471 1482 1497 1505 1508 1514 1518 1523 1528 1530 1534 1537 1542 1545 1545 1547 1551 1555 1558 1562 1566 1566 1565 1567 1569 1569 1569 1568 1569 1569 1569 1568 1569 1571 1571 1570
1461 1462 1459 1456 1443 1431 1455 1469 1477 1497 1507 1512 1514 1517 1521 1524 1529 1535 1537 1541 1544 1547 1547 1552 1554 1558 1561 1566 1567 1566 1567 1570 1570 1570 1569 1570 1570 1570 1570 1570 1571 1572 1572
1463 1464 1461 1459 1455 1456 1455 1465 1481 1496 1508 1510 1513 1518 1522 1526 1530 1535 1538 1542 1543 1547 1550 1551 1555 1558 1561 1565 1567 1567 1568 1569 1570 1570 1570 1570 1570 1571 1571 1571 1571 1572 1572
1463 1464 1464 1463 1465 1464 1470 1475 1487 1498 1504 1506 1514 1520 1523 1527 1531 1534 1539 1542 1544 1549 1552 1553 1556 1556 1560 1564 1566 1567 1568 1569 1570 1571 1570 1570 1571 1571 1572 1572 1571 1571 1570
1463 1465 1467 1469 1471 1473 1473 1480 1484 1497 1502 1507 1513 1520 1526 1528 1533 1532 1538 1541 1544 1549 1553 1554 1557 1557 1558 1562 1566 1568 1568 1568 1568 1571 1571 1570 1571 1571 1571 1572 1571 1571 1571
1462 1465 1467 1471 1473 1477 1482 1486 1491 1497 1502 1511 1517 1521 1524 1530 1534 1533 1537 1541 1545 1549 1552 1553 1556 1557 1559 1563 1565 1566 1567 1568 1568 1569 1569 1569 1570 1571 1571 1571 1571 1570 1571
1464 1466 1467 1470 1472 1478 1482 1488 1494 1500 1507 1513 1518 1521 1525 1530 1533 1535 1537 1540 1545 1549 1552 1553 1555 1558 1558 1561 1564 1565 1566 1567 1567 1567 1568 1568 1569 1569 1569 1569 1570 1570 1570
1463 1466 1465 1469 1474 1480 1486 1491 1496 1503 1507 1511 1517 1521 1525 1528 1532 1534 1536 1540 1544 1547 1550 1551 1553 1556 1558 1561 1562 1564 1565 1565 1565 1566 1567 1566 1567 1567 1567 1567 1567 1567 1568
1464 1467 1470 1471 1475 1481 1485 1490 1495 1498 1502 1508 1517 1521 1524 1529 1531 1533 1536 1539 1542 1544 1548 1550 1552 1554 1556 1556 1559 1561 1560 1562 1562 1562 1564 1565 1565 1565 1564 1564 1564 1565 1565
1466 1468 1471 1474 1478 1481 1484 1490 1495 1498 1502 1509 1515 1519 1523 1527 1528 1531 1534 1537 1540 1542 1545 1546 1548 1552 1554 1555 1555 1557 1558 1559 1558 1559 1561 1562 1562 1562 1562 1562 1561 1562 1562
1462 1467 1469 1473 1477 1482 1486 1491 1498 1500 1504 1508 1512 1517 1520 1523 1525 1528 1532 1534 1537 1539 1541 1542 1545 1547 1550 1551 1551 1554 1554 1553 1553 1554 1556 1557 1558 1558 1559 1558 1558 1558 1559
1463 1465 1466 1471 1475 1481 1488 1492 1494 1497 1501 1506 1510 1514 1516 1518 1522 1524 1529 1532 1533 1534 1537 1538 1541 1543 1544 1546 1548 1547 1547 1547 1548 1549 1550 1550 1552 1553 1553 1553 1553 1553 1553
1461 1462 1466 1470 1472 1478 1483 1487 1490 1493 1498 1503 1507 1509 1511 1515 1520 1522 1523 1529 1529 1529 1533 1534 1534 1537 1538 1541 1541 1542 1543 1543 1544 1545 1546 1547 1547 1548 1548 1548 1548 1549 1549
1457 1460 1463 1466 1470 1474 1479 1483 1486 1490 1494 1498 1502 1504 1508 1513 1515 1518 1519 1522 1524 1525 1527 1529 1529 1531 1534 1536 1537 1537 1539 1540 1540 1541 1542 1542 1543 1544 1543 1543 1544 1545 1545